Regional Weather Roundup
Issued by NWS New Orleans/Baton Rouge, LA

Home | Current Version | Previous Version | Text Only | Print | Product List | Glossary On
Versions: 1 2 3 4 5 6 7 8 9 10 11 12 13 14 15 16 17 18 19 20 21 22 23 24 25 26 27 28 29 30 31 32 33 34 35 36 37 38 39 40 41 42 43 44 45 46 47 48 49 50
000
ASUS44 KLIX 022110
RWRLIX
NEW ORLEANS REGIONAL WEATHER ROUNDUP
NATIONAL WEATHER SERVICE NEW ORLEANS LA
300 PM CST MON MAR 02 2015

NOTE: "FAIR" INDICATES FEW OR NO CLOUDS BELOW 12,000 FEET WITH NO
      SIGNIFICANT WEATHER AND/OR OBSTRUCTIONS TO VISIBILITY.
      SKY/WX - SKY CONDITION AND SIGNIFICANT WEATHER.
      TMP - AIR TEMPERATURE.     DP    - DEWPOINT TEMPERATURE.
      RH  - RELATIVE HUMIDITY.   PRES  - PRESSURE.
      HI  - HEAT INDEX.          WCI   - WIND CHILL INDEX.

*  THESE STATIONS ARE NOT NWS OR FAA STATIONS AND ARE NOT UNDER
   NWS QUALITY CONTROL.

LAZ038-040-048-061>063-065>067-069-022200-
SOUTHEAST LOUISIANA

CITY           SKY/WX    TMP DP  RH WIND       PRES   REMARKS
N.O. AUDUBON     N/A     74  73  98 MISG        N/A
N.O. INTL ARPT PTSUNNY   73  66  78 E8        30.19F
N.O. LAKEFRONT CLOUDY    67  61  81 NE10      30.20F
SLIDELL        CLOUDY    72  68  87 E5        30.20F
BATON ROUGE    FOG       65  64  97 N3        30.20F VSB 1/2
BOOTHVILLE     SUNNY     77  69  76 S8        30.21F
BELLE CHASSE   PTSUNNY   78  68  71 SW9       30.18F
BOGALUSA*      LGT RAIN  65  63  90 NE3       30.23F
GALLIANO*      PTCLDY    81  69  67 S12       30.20S
NEW ROADS*     RAIN      52  51  98 N3        30.22F
GONZALES*      MOCLDY    78  70  77 SW7       30.17F
HAMMOND*       NOT AVBL
HOUMA*         PTSUNNY   75  72  88 S8        30.19
PORT FOURCHON* CLEAR     77  70  78 S9        30.22F

$$

MSZ070-080>082-022200-
SOUTHERN MISSISSIPPI

CITY           SKY/WX    TMP DP  RH WIND       PRES   REMARKS
MCCOMB         RAIN      63  62  97 CALM      30.22S FOG
GULFPORT       FOG       65  64  97 SE3       30.21F VSB 1/2
BILOXI         CLOUDY    65  65 100 SE6       30.21F
PASCAGOULA     LGT RAIN  68  65  90 SE8       30.22S
STENNIS ARPT*  CLOUDY    66  63  88 CALM      30.22  FOG

$$

COASTAL OBSERVATIONS
LAKE AND NEARSHORE STATIONS

STATION/POSITION TIME  TEMP    WIND        PRES    WAVE
                       AIR SEA DIR/SP/G            HT/PER
                 (UTC) (F)     (DEG/KT/KT) (MB)    (FT/S)
PASCAGOULA       2100   63     100/  5/  9 1023.0
WAVELAND YACHT   2100   63 55  340/  5/  5 1023.0
GRAND ISLE       2100   73 60  160/  5/  8 1023.1
SOUTHWEST PASS   2100   74 48  160/  7/  8 1023.0
NEW CANAL        2100   63      80/  7/  8 1022.9
SHELL BEACH      2100   71 56  100/  3/  4 1022.5

OFFSHORE STATIONS

STATION/POSITION TIME  TEMP    WIND        PRES    WAVE
                       AIR SEA DIR/SP/G            HT/PER
                 (UTC) (F)     (DEG/KT/KT) (MB)    (FT/S)
64 S DAUPHIN ISL 2001   71 72  160/ 10/ 12 1023.6    3/ 6

$$




USA.gov is the U.S. government's official web portal to all federal, state and local government web resources and services.